Regional Weather Roundup
Issued by NWS Little Rock, AR

Home | Current Version | Previous Version | Graphics & Text | Print | Product List | Glossary Off
Versions: 1 2 3 4 5 6 7 8 9 10 11 12 13 14 15 16 17 18 19 20 21 22 23 24 25 26 27 28 29 30 31 32

000
ASUS44 KLZK 010705
RWRLZK

WEATHER ROUNDUP FOR ARKANSAS
NATIONAL WEATHER SERVICE LITTLE ROCK AR
200 AM CDT SAT OCT 01 2016

NOTE: "FAIR" INDICATES FEW OR NO CLOUDS BELOW 12,000 FEET WITH NO
SIGNIFICANT WEATHER AND/OR OBSTRUCTIONS TO VISIBILITY.

ARZ001-003-010-029-010800-
NORTHWEST ARKANSAS

CITY           SKY/WX    TMP DP  RH WIND       PRES   REMARKS
FAYETTEVILLE   PTCLDY    51  51 100 CALM      30.12S
FORT SMITH     PTCLDY    58  52  80 CALM      30.09S
HARRISON       CLEAR     56  53  90 W3        30.10F
BENTONVILLE    PTCLDY    55  48  76 CALM      30.12S
ROGERS         PTCLDY    57  53  86 CALM      30.12S
SILOAM SPGS    PTCLDY    52  43  71 CALM      30.13R
HIGHFILL       MOCLDY    55  52  89 CALM      30.11S
$$

ARZ004-005-016-010800-
NORTH CENTRAL ARKANSAS

CITY           SKY/WX    TMP DP  RH WIND       PRES   REMARKS
BATESVILLE     CLEAR     57  54  88 W3        30.08S
FLIPPIN        CLEAR     55  52  88 CALM      30.07S
MTN HOME       CLEAR     56  54  93 CALM      30.09R
$$

ARZ040-041-010800-
WEST CENTRAL ARKANSAS

CITY           SKY/WX    TMP DP  RH WIND       PRES   REMARKS
MENA           CLEAR     52  52 100 CALM      30.10S
MOUNT IDA      CLEAR     54  52  93 CALM      30.07S
$$

ARZ009-017-025-026-028-010800-
NORTHEAST ARKANSAS

CITY           SKY/WX    TMP DP  RH WIND       PRES   REMARKS
CORNING          N/A     57  57 100 W6        30.05F
JONESBORO      CLOUDY    64  57  78 CALM      30.05F
NEWPORT        CLEAR     60  57  89 W5        30.07S
WALNUT RIDGE   CLOUDY    64  55  72 W3        30.06S
BLYTHEVILLE    CLEAR     60  57  89 W5        30.05S
$$

ARZ022-023-033-042-044-010800-
CENTRAL ARKANSAS

CITY           SKY/WX    TMP DP  RH WIND       PRES   REMARKS
LITTLE ROCK    PTCLDY    59  59 100 CALM      30.08F
N LITTLE ROCK    N/A     62  56  81 CALM      30.06F
JACKSONVILLE   CLEAR     56  54  91 CALM      30.08S
SEARCY         CLEAR     57  56  96 CALM      30.09S
HOT SPRINGS    CLEAR     59  54  83 CALM      30.08S
RUSSELLVILLE   PTCLDY    57  55  93 CALM      30.08S
$$

ARZ036-010800-
EAST ARKANSAS

CITY           SKY/WX    TMP DP  RH WIND       PRES   REMARKS
WEST MEMPHIS   CLEAR     56  54  93 CALM      30.05S
$$

ARZ050-053-066-070-073-010800-
SOUTHWEST ARKANSAS

CITY           SKY/WX    TMP DP  RH WIND       PRES   REMARKS
ARKADELPHIA    FAIR      55  55 100 CALM      30.08S
TEXARKANA      CLEAR     61  55  81 CALM      30.08R
EL DORADO      CLEAR     56  55  97 CALM      30.07F
DE QUEEN       CLEAR     52  52 100 CALM      30.07R FOG
$$

ARZ056-057-069-010800-
SOUTHEAST ARKANSAS

CITY           SKY/WX    TMP DP  RH WIND       PRES   REMARKS
PINE BLUFF     CLEAR     57  56  96 CALM      30.08S
STUTTGART      CLEAR     61  52  72 CALM      30.08F
MONTICELLO     CLEAR     57  55  93 CALM      30.07S

$$






USA.gov is the U.S. government's official web portal to all federal, state and local government web resources and services.